map of TIX home
TIX - Airport
Location
City:  Titusville, Florida, United States
Name:Space Coast Regional
ICAO:KTIX
IATA:TIX
FAA LID:TIX

Details
Type:Airport (Part 139 Class IV)
Use:Public/Civil
Latitude:2830'53"N (28.514806)
Longitude:8047'57"W (-80.799221)
Datum:WGS 1984
Elevation:33 ft (10 m)
Variation:6.82W (WMM2015 magnetic declination)
-0.09 annual change
Runways:2
Longest:7319 × 150 ft (2231 × 45.5 m), paved

Time
Time Zone:UTC-5 (DST-4)
Local Time:

Weather
METAR:KTIX 110047Z 32005KT 7SM BKN030 11/06 A3016
TAF:KTIX 102339Z 1100/1124 31015KT P6SM SCT030
TEMPO 1100/1103 BKN030
FM111500 32015KT P6SM FEW035
AMD NOT SKED 1102/1112

Related Locations
Nearby:
Farthest:USL: 11558 mi / 18602 km
Useless Loop, WA, AU

Find:

   beyond  
but within

Other Information
Maps:
NOTAMs:
Links:
Sources:

  
  • flag of United States
  • flag of Florida
  

Airport Diagram

Airport diagram for TIX

Airport diagram PDF

Sectional Chart

Flight Planning
at skyvector.com

Satellite Image

Google Maps Satellite view

 

Copyright © 2004-2018 Karl L. Swartz. All rights reserved.
The Great Circle Mapper name and logo are trademarks of the Great Circle Mapper.
All other trademarks mentioned herein belong to their respective owners.
Please see credits for attibutions and further copyright information.

  Follow gcmap on Facebook Follow gcmap on Twitter Follow gcmap on Google+ GCmap on LinkedIn

hCard Microformat

Geo Microformat